Погода в Стерлитамаке

Хотите узнать прогноз погоды в Стерлитамаке? Тогда Вам сюда: Погода в Стерлитамаке

Поиск расширенной информации на нашем сайте:

Полезная информация:

Новости сайта



02.01.2020
Опубликован Долгосрочный прогноз погоды по городам России и ближнего зарубежья на январь 2020 года.
Карты: Прогноз на январь и февраль 2020 года, Сравнение прогнозируемой аномалии приземной температуры воздуха на январь 2020 года по разным моделям.




Погода в Стерлитамаке - сегодня

Время (UTC), дата Ветер
(°,м/с) 
Видим.   Явления Облачность Т
(°С)
Тd
(°С)
f(%) Тe
(°С)
Pmin
(гПа)
dP
(гПа)
Po
(мм)
O2
(г/м3)
Тmin Tmax R s Состояние
почвы
15 02.07.20 130 (ЮВ) 10 км    9/9 600 м кучево-дожд. 
[Cb cap]
+18.8 +7.1 46 +20  1015.7  -1  750  281    +21.2  0.0     
18 02.07.20 160 (Ю) 10 км    9/8 600 м кучево-дожд., средняя 
[Cb cap|Ac cuf]
+17.3 +6.8 50 +19  1014.6  -1.2  749  283           
21 02.07.20 тихо ()   10 км    4/0 верхняя 
[Ci fib]
+12.7 +7 68 +13  1014.5  -1.2  749  287           
00 03.07.20 тихо ()   10 км    8/0 средняя, верхняя 
[Ac trans|Ci fib]
+10.6 +7.5 81 +11  1014.5  -0.2  748  289           
03 03.07.20 тихо ()   20000 м    9/0 верхняя 
[Ci sp]
+17.1 +8.5 57 +17  1015.1  749  283  +10.3        сухая 
06 03.07.20 330 (СЗ) 20000 м    9/0 верхняя 
[Ci sp]
+23.7 +9.4 40 +24  1015.3  0.6  750  276           
09 03.07.20 020 (С) 20000 м    6/5 1000 м верхняя 
[Cu hum|Ci fib]
+27.2 +9.5 33 +28  1015.3  0.2  750  273           
12 03.07.20 020 (С) 20000 м    8/3 1000 м средняя, верхняя 
[Cu med, cong|Ac trans|Ci fib]
+28.2 +8.7 29 +28  1015.1  -0.2  750  272           
15 03.07.20 350 (С) 20000 м    1/0 средняя 
[Ac trans]
+26.8 +8.6 32 +27  1015.3  -0.1  750  274    +28.5       
18 03.07.20 350 (С) 10 км    1/0 средняя 
[Ac trans]
+22.5 +9.7 44 +23  1016.9  1.3  751  278           
21 03.07.20 210 (ЮЗ) 10 км    1/0 верхняя 
[Ci fib]
+15.9 +12.1 78 +21  1017.9  0.6  751  284           
00 04.07.20 тихо ()   10 км    ясно 
+13.5 +11.3 87 +16  1018.3  0.3  751  286           
03 04.07.20 тихо ()   20000 м    1/0 средняя 
[Ac trans]
+19.5 +12.6 64 +24  1019.1  0.3  752  280  +13.3        сухая 
06 04.07.20 200 (Ю) 20000 м    3/0 средняя, верхняя 
[Ac trans|Ci fib]
+25.8 +12.6 44 +31  1018.2  -0.5  752  274           
09 04.07.20 230 (ЮЗ) 20000 м    9/8 600 м кучево-дожд., средняя, верхняя 
[Cb cap|Ac trans|Ci fib]
+27.8 +12.2 38 +32  1017.1  -1  751  272           
12 04.07.20 290 (З) 10 км    9/9 600 м кучево-дожд. 
[Cb cap]
+27.6 +12.7 40 +33  1016  -1.1  750  272           
15 04.07.20 100 (В) 20000 м    9/4 600 м кучево-дожд., верхняя 
[Cb cap|Ci sp]
+26.6 +14.7 48 +35  1015.2  -0.8  750  272    +29.4       
18 04.07.20 тихо ()   10 км    8/5 600 м кучево-дожд., средняя 
[Cb cap|Ac trans]
+20.2 +15.9 76 +30  1015.4  -0.2  750  278           
21 04.07.20 тихо ()   10 км    10/10 600 м кучево-дожд. 
[Cb cap]
+20.2 +16.1 77 +31  1014.6  -0.8  749  278           
00 05.07.20 тихо ()   10 км    9/8 600 м кучево-дожд., средняя 
[Cb cap|Ac trans]
+18.5 +15.8 84 +29  1014.2  -0.5  749  279           
03 05.07.20 190 (Ю) 20000 м    ясно 
+22.4 +15.2 64 +31  1013.9  0.1  749  276  +18.5        сухая 
06 05.07.20 200 (Ю) 20000 м    3/1 1000 м верхняя 
[Cu hum|Ci fib]
+29.3 +14.3 40 +37  1012.3  -1.2  748  269           
09 05.07.20 180 (Ю) 20000 м  в посл. час ливневой дождь  9/8 600 м кучево-дожд., средняя 
[Cb cap|Ac trans]
+27.9 +13.9 42 +35  1011.1  -1.3  747  270           
12 05.07.20 330 (СЗ) 4{11}  20000 м    8/1 1000 м средняя 
[Cu med, cong|Ac trans]
+31 +12.8 33 +36  1009.7  -1.2  746  267           
15 05.07.20 040 (СВ) 20000 м    9/0 средняя 
[Ac trans]
+26.9 +15.1 48 +36  1009.9  0.1  746  270    +32  0.1     
Время (UTC), дата Ветер
(°,м/с) 
Видим.   Явления Облачность Т
(°С)
Тd
(°С)
f(%) Тe
(°С)
Pmin
(гПа)
dP
(гПа)
Po
(мм)
O2
(г/м3)
Тmin Tmax R s Состояние
почвы

Для получения пояснительной информации подведите курсор к названию столбца.

ПОГОДА в Стерлитамаке - архив

Всё, что Вы хотите узнать о погоде в Стерлитамаке - удобно и подробно!

Выберите нужную дату (начиная с 1 января 2019* года) и нажмите кнопку "Найти".
Будут отображены архивные сводки погоды по пункту Стерлитамак, начиная с указанной даты.


Отображать данные в формате CSV (для использования в таблицах Excel)


Внимание! Наш архив погоды предназначен исключительно для личного некоммерческого использования в познавательных целях. Если Вам необходимы официальные справки о состоянии погоды (для производственных, юридических, коммерческих и т.п. целей), обращайтесь в органы Росгидромета.

*Примечание: данная дата относится к архиву по метеостанциям СССР (Россия, СНГ, Балтия).
Архив по метеостанциям Зарубежной Европы и Азии (кроме Китая) хранится 10 дней, по другим регионам земного шара (Китай, Африка, Америка, Австралия, Океания) - 1 день.

Стерлитамак - район местоположения метеостанции


Название, широта, долгота, высота метеостанции:
Стерлитамак 53.6°ш. 56°д. 137 м над ур. моря [Российская Федерация]

Дополнительная информация

В oтличие oт бoльшинства пoгoдных сайтoв мы публикуем пoдрoбную метеoинфoрмацию в детальнoм прoфессиoнальнoм фoрмате.

Характеристики температуры и влажнoсти вoздуха измеряются на высoте 2 м в тени вдали oт зданий и деревьев.
Скoрoсть ветра измеряется на высoте 10 м (на урoвне рoста челoвека скoрoсть ветра ниже в 1.5-2 раза). Если метеoстанция нахoдится в гoрoде или в лесу, тo скoрoсть ветра занижена на 2-4 м/с пo сравнению с oткрытым местoм. Скoрoсть ветра над акватoриями крупных рек и oзёр, а также на вершинах хoлмoв на 2-5 м/с выше, чем в oбычных услoвиях.
Атмoсфернoе давление в разных тoчках местнoсти мoжет значительнo oтличаться oт давления на метеoстанции, в зависимoсти oт услoвий рельефа (при пoдъёме на 10 м давление пoнижается примернo на 1 мм рт.ст.).